HYLAS 2

Last updated on Oct. 23, 2020, 5:56 a.m. UTC

1 38741U 12043B   20296.83199556  .00000139  00000-0  00000-0 0  9991
2 38741   0.0158 254.3413 0001842 285.8008 182.1244  1.00268865 30075
UTC
Height (km)
Latitude
Longitude
Inclination
Orbital Period
UTC large
Height (km)
Speed (km/s)
/
Latitude / Longitude
Inclination (degrees)
Orbital Period (minutes)
Azimuth
Elevation
Range (km)
Doppler Factor
iOS Compass Heading
iOS Angle

Next 30 passes for location: Hong Kong

Rise time Rise Azimuth (degrees) Set time Set Azimuth (degrees) Duration Max altitude (degrees)

No matching passes for this satellites